Location: Lindau-Bodensee
(47.5545°N, 9.7016°E)
Time: 01:39:55
(UTC+01:00)

ISS - Visible Passes

Search period start: 29 November 2021 00:00
Search period end: 09 December 2021 00:00
Orbit: 417 x 423 km, 51.6° (Epoch: 28 November)

Date Brightness Start Highest point End Pass type
(mag) Time Alt. Az. Time Alt. Az. Time Alt. Az.
29 Nov -3.2 17:05:04 10° W 17:08:22 46° NNW 17:11:40 10° ENE visible
29 Nov -2.7 18:42:20 10° WNW 18:44:54 37° NNW 18:44:54 37° NNW visible
30 Nov -3.0 17:55:04 10° WNW 17:58:19 40° N 17:59:38 27° NE visible
30 Nov -0.7 19:32:00 10° WNW 19:32:37 14° WNW 19:32:37 14° WNW visible
01 Dec -3.0 17:07:46 10° WNW 17:11:00 39° N 17:14:14 10° ENE visible
01 Dec -2.9 18:44:47 10° WNW 18:47:22 45° NW 18:47:22 45° NW visible
02 Dec -3.5 17:57:35 10° WNW 18:00:55 51° NNE 18:02:11 31° ENE visible
02 Dec -0.6 19:34:29 10° WNW 19:35:10 15° WNW 19:35:10 15° WNW visible
03 Dec -3.2 17:10:19 10° WNW 17:13:35 44° N 17:16:53 10° E visible
03 Dec -3.1 18:47:11 10° WNW 18:50:04 56° W 18:50:04 56° W visible
04 Dec -3.8 17:59:55 10° WNW 18:03:20 86° NNE 18:05:04 27° ESE visible
04 Dec -0.5 19:37:18 10° W 19:38:05 14° W 19:38:05 14° W visible
05 Dec -3.7 17:12:40 10° WNW 17:16:03 65° NNE 17:19:26 10° ESE visible
05 Dec -2.1 18:49:43 10° W 18:52:43 29° SW 18:53:16 28° SSW visible
06 Dec -2.6 18:02:18 10° WNW 18:05:33 44° SSW 18:08:41 11° SE visible
07 Dec -3.3 17:14:56 10° WNW 17:18:19 66° SSW 17:21:41 10° SE visible
07 Dec -0.6 18:53:06 10° WSW 18:54:36 12° SW 18:56:07 10° SSW visible
08 Dec -0.9 18:05:01 10° W 18:07:30 19° SW 18:09:59 10° S visible
